Starlink 3703

operational
NORAD ID: 52101 Int'l Des: 2022-029 Owner: SPXS Country: US Constellation: starlink
LEOCIRCULAR

Starlink 3703について

説明を読み込み中...

リアルタイム位置

3D地球を読み込み中...

次回通過

高度履歴

Altitude vs Time

uPlot chart will show altitude changes over time

軌道要素

1 52101U 22029P 25351.99930635 -.00000014 00000-0 17231-4 0 9998
2 52101 53.2184 96.0351 0001150 79.8842 280.2280 15.08835783208317
Epoch: Dec 17, 2025 • Age: 15 hours

現在のステータス

高度 545.2 km
速度 7.60 km/s
衛星直下点 51.48°N, 104.42°W
打ち上げ日 Mar 19, 2022
運用期間 3.7 years
タイプ internet

技術仕様

分類 Payload
質量 297.00 kg
乾燥質量 275.00 kg
総質量 297.00 kg
長さ 0.20 m
直径 2.80 m
スパン 9.00 m
形状 Box + pan
製造者 SPXS
バスタイプ Starlink
フェーズステータス In Orbit
所有者/国 SPXS/US

大規模コンステレーション

Loading constellations...